SCP
0 0 0 0 0 0 0 0 0 0 0 0 0 0 0 0 0 0 0 0 0 0 0 0 0 0 0 0 0 0 0 0 0 0 0 0 0 0 0 0 0 0 0 0 0 0 0 0 0
0 0 0 0 0 0 0 0 0 0 0 0 0 0 0 0 0 0 0 0 0 0 0 0 0 0 0 0 0 0 0 0 0 0 0 0 0 0 0 0 0 0 0 0 0 0 0 0 0
0 0 0 0 0 0 0 0 0 0 0 0 0 0 0 0 0 0 0 0 0 0 0 0 0 0 0 0 0 0 0 0 0 0 0 0 0 0 0 0 0 0 0 0 0 0 0 0 0
0 0 0 0 0 0 0 0 0 0 0 -0 0 0 0 0 0 0 0 0 0 0 0 0 0 0 0 0 0 0 0 0 0 0 0 0 0 0 0 0 0 0 0 0 0 0 0 0 0
0 0 0 0 0 0 0 0 0 0 0 0 0 0 0 0 0 0 0 0 0 0 0 0 0 0 0 0 0 0 0 0 0 0 0 0 0 0 0 0 0 0 0 0 0 0 0 0 0
0 0 0 0 0 0 0 0 0 0 0 0 0 0 0 0 0 0 0 0 0 0 0 0 0 0 0 0 0 0 0 0 0 0 0 0 0 0 0 0 0 0 0 0 0 0 0 0 0
0 0 0 0 0 0 0 0 0 0 0 0 0 0 0 0 0 0 0 0 0 0 0 0 0 0 0 0 0 0 0 0 0 0 0 0 0 0 0 0 0 0 0 0 0 0 0 0 0
0 0 0 0 0 0 0 0 0 0 0 0 0 0 0 0 0 0 0 0 0 0 -0 -0 -0 -0 0 0 0 0 0 0 0 0 0 0 0 0 0 0 0 0 0 0 0 0 0 0 0
0 0 0 0 0 0 0 0 0 0 0 0 0 0 0 0 0 0 0 0 0 0 0 -0 -0 -0 -0 -0 -0 0 0 0 0 0 0 0 0 0 0 0 0 0 0 0 0 0 0 0 0
0 0 0 0 0 0 0 0 0 0 0 0 0 0 0 0 0 0 0 0 0 0 0 0 0 0 0 0 -0 -0 -0 -0 0 -0 0 0 0 0 0 0 0 0 0 0 0 0 0 0 0
0 0 0 0 0 0 0 0 0 0 0 0 0 0 0 0 0 0 0 0 0 0 0 0 0 0 0 0 0 -0 -0 0 0 0 0 0 0 0 0 0 0 0 0 0 0 0 0 0 0
0 0 0 0 0 0 0 0 0 0 0 0 0 0 0 0 0 0 0 0 0 0 0 0 0 0 0 0 0 0 0 0 0 0 0 0 0 0 0 0 0 0 0 0 0 0 0 0 0
0 0 0 0 0 0 0 0 0 0 0 0 0 0 0 0 0 0 0 0 0 0 0 0 0 0 0 0 0 0 0 0 0 0 0 0 0 0 0 0 0 0 0 0 0 0 0 0 0
0 0 0 0 0 0 0 0 0 0 0 0 0 0 0 0 0 0 0 0 0 0 0 0 0 0 0 0 0 0 0 0 0 0 0 0 0 0 0 0 0 0 0 0 0 0 0 0 0
0 0 0 0 0 0 0 0 0 0 0 0 0 0 0 0 0 0 0 0 0 0 0 0 0 0 0 0 0 0 0 0 0 0 0 0 0 0 0 0 0 0 0 0 0 0 0 0 0
0 0 0 0 0 0 0 0 0 0 0 0 0 -0 0 0 0 0 0 0 0 0 0 0 0 0 0 0 0 0 0 0 0 0 0 0 0 0 0 0 0 0 0 0 0 0 0 0 0
0 0 0 0 0 0 0 0 0 0 0 0 0 0 0 0 0 0 0 0 0 0 0 0 0 0 0 0 0 0 0 0 0 0 0 0 0 0 0 0 0 0 0 0 0 0 0 0 0
0 0 0 0 0 0 0 0 0 0 0 0 0 0 0 0 0 0 0 0 0 0 0 0 0 0 0 0 0 0 0 0 0 0 0 0 0 0 0 0 0 0 0 0 0 0 0 0 0
0 0 0 0 0 0 0 0 0 0 0 0 0 0 0 0 0 0 0 0 0 0 0 0 0 0 0 0 0 0 0 0 0 0 0 0 0 0 0 0 0 0 0 0 0 0 0 0 0
0 0 0 0 0 0 0 0 0 0 0 0 0 0 0 0 0 0 0 0 0 0 0 0 0 0 0 0 0 0 0 0 0 0 0 0 0 0 0 0 0 0 0 0 0 0 0 0 0
0 0 0 0 0 0 0 0 0 0 0 0 0 0 0 0 0 0 0 0 0 0 0 0 0 0 0 0 0 0 0 0 0 0 0 0 0 0 0 0 0 0 0 0 0 0 0 0 0
0 0 0 0 0 0 0 0 0 0 0 0 0 0 0 0 0 0 0 0 0 0 0 0 0 0 0 0 0 0 0 0 0 0 0 0 0 0 0 0 0 0 0 0 0 0 0 0 0
0 0 0 0 0 0 0 0 0 0 0 0 0 0 0 0 0 0 0 0 0 0 0 0 0 0 0 0 0 0 0 0 0 0 0 0 0 0 0 0 0 0 0 0 0 0 0 0 0
0 0 0 0 0 0 0 0 0 0 0 0 0 0 0 0 0 0 0 0 0 0 0 0 0 0 0 0 0 0 0 0 0 0 0 0 0 0 0 0 0 0 0 0 0 0 0 0 0
0 0 0 0 0 0 0 0 0 0 0 0 0 0 0 0 0 0 0 0 0 0 0 0 0 0 0 0 0 0 0 0 0 0 0 0 0 0 0 0 0 0 0 0 0 0 0 0 0
0 0 0 0 0 0 0 0 0 0 0 0 0 0 0 0 0 0 0 0 0 0 0 0 0 0 0 0 0 0 0 0 0 0 0 0 0 0 0 0 0 0 0 0 0 0 0 0 0
0 0 0 0 0 0 0 0 0 0 0 0 0 0 0 0 0 0 0 0 0 0 0 0 0 0 0 0 0 0 0 0 0 0 0 0 0 0 0 0 0 0 0 0 0 0 0 0 0
0 0 0 0 0 0 0 0 0 0 0 0 0 0 0 0 0 0 0 0 0 0 0 0 0 0 0 0 0 0 0 0 0 0 0 0 0 0 0 0 0 0 0 0 0 0 0 0 0
0 0 0 0 0 0 0 0 0 0 0 0 0 0 0 0 0 0 0 0 0 0 0 0 0 0 0 0 0 0 0 0 0 0 0 0 0 0 0 0 0 0 0 0 0 0 0 0 0
0 0 0 0 0 0 0 0 0 0 0 0 0 0 0 0 0 0 0 0 0 0 0 0 0 0 0 0 0 0 0 0 0 0 0 0 0 0 0 0 0 0 0 0 0 0 0 0 0
Wind_Speed
11 10 6 3 3 4 2 4 5 6 6 8 8 6 8 11 7 9 6 11 15 14 12 10 10 11 11 11 11 12 12 12 13 14 14 15 15 15 16 16 16 16 17 17 18 18 18 17 17
9 7 4 3 4 4 4 5 6 7 9 7 4 1 5 9 8 8 7 12 14 13 11 11 11 11 11 11 11 12 13 13 13 14 14 15 15 15 15 15 15 15 16 17 17 17 16 16 16
8 6 3 3 5 3 5 7 10 10 7 4 3 4 7 8 9 6 9 12 12 12 11 11 11 11 12 11 11 12 13 13 13 13 14 14 14 14 14 14 14 15 15 16 16 16 15 15 14
5 3 3 4 6 4 5 7 12 9 4 1 3 7 6 5 5 10 12 12 12 12 12 10 11 11 11 11 11 12 12 13 12 13 14 14 14 14 13 13 14 14 14 15 15 15 14 14 13
3 3 4 5 4 4 4 5 11 8 7 5 1 8 7 5 11 14 10 11 12 12 11 10 10 10 10 11 11 12 12 12 13 13 13 13 13 13 12 12 13 14 14 14 14 14 13 13 12
3 3 4 6 4 5 3 2 6 7 7 5 2 7 7 6 9 10 9 10 11 12 11 10 10 10 9 10 10 11 12 12 12 12 12 12 12 12 12 12 12 13 13 13 13 13 12 11 10
3 3 6 8 4 5 5 3 4 5 7 5 2 6 7 7 9 9 8 10 11 12 11 8 8 9 9 10 10 11 11 11 12 12 12 11 11 11 11 10 11 12 12 12 12 11 11 10 9
3 3 7 7 3 5 7 4 1 3 6 5 2 3 8 10 10 9 8 9 10 9 9 9 8 8 7 7 10 11 11 11 11 11 11 11 10 9 9 9 10 11 11 11 11 10 9 8 7
3 4 6 6 3 6 8 5 3 5 7 4 5 7 12 15 12 9 7 8 8 8 7 8 8 8 8 7 9 9 10 10 10 8 9 8 5 5 6 9 9 10 10 9 9 8 8 6 4
3 4 8 3 2 6 8 7 7 4 6 5 6 7 13 12 11 10 9 9 9 8 7 7 8 8 8 8 7 5 6 6 5 5 5 3 4 5 7 8 8 8 8 8 7 6 4 3 2
5 6 5 3 6 5 7 7 8 7 6 8 12 11 12 12 11 10 9 9 9 8 7 7 7 7 7 5 5 3 3 4 4 6 4 3 4 4 4 3 4 4 5 4 4 3 2 0 1
6 6 2 3 3 1 6 6 6 4 4 4 11 15 13 12 12 11 10 10 10 9 8 6 6 6 7 6 4 4 3 3 3 4 5 3 3 3 3 3 4 3 2 3 2 1 0 1 1
8 3 3 4 2 0 3 5 4 4 7 6 9 13 12 12 10 10 9 9 10 10 10 8 6 7 6 5 4 4 4 4 4 4 4 4 3 3 3 2 2 3 2 3 2 2 2 1 2
6 5 5 4 4 1 3 4 2 4 9 8 7 9 10 11 11 10 10 10 10 10 11 9 8 7 6 4 4 3 4 4 4 4 5 5 3 3 3 3 3 2 2 2 2 2 2 2 2
4 6 5 5 5 3 3 3 5 5 8 8 8 8 10 10 11 10 10 9 10 9 10 10 9 8 7 6 5 3 3 4 3 4 5 5 4 4 4 3 3 3 2 2 1 1 1 2 2
5 6 6 5 6 3 4 5 7 8 7 7 8 8 9 9 10 10 10 9 9 10 9 10 8 9 8 7 6 3 3 4 3 4 4 5 5 4 3 3 3 3 3 2 2 2 2 3 3
8 10 9 6 5 5 5 4 4 6 6 6 7 7 8 8 9 9 9 10 10 10 10 10 10 10 9 7 5 5 3 4 3 3 3 4 5 4 3 3 3 4 3 3 3 3 2 3 4
11 9 10 8 7 6 5 5 5 5 6 6 7 7 8 9 9 8 9 9 9 9 10 11 11 10 9 7 5 4 4 3 3 3 4 5 5 5 4 3 4 4 3 3 3 4 3 3 3
9 10 10 6 5 6 7 8 7 8 7 7 7 6 7 8 8 8 8 8 8 8 9 11 12 11 9 7 7 6 6 5 4 4 5 6 5 6 5 4 4 4 4 5 5 3 4 3 2
8 11 9 5 2 2 5 8 8 7 9 9 8 8 8 8 7 7 7 8 8 8 8 9 10 12 11 8 7 5 5 5 5 5 6 6 6 6 5 6 4 5 4 5 5 4 3 3 3
9 8 8 7 4 1 1 6 10 10 9 8 7 6 6 7 8 8 7 7 7 7 8 7 9 10 12 10 6 4 4 3 4 5 5 7 7 7 6 6 5 5 5 5 6 6 6 4 3
7 2 5 10 7 5 6 5 7 10 10 9 8 7 6 5 5 6 6 6 6 6 5 6 7 8 9 11 9 8 6 6 6 4 4 5 7 6 6 6 6 5 5 5 5 6 5 5 4
3 5 7 6 4 2 4 4 6 5 7 9 9 8 6 5 5 5 4 3 3 2 3 3 4 5 7 9 10 8 7 5 3 3 4 4 4 5 5 5 5 5 4 5 5 5 6 5 5
8 7 6 3 2 3 7 6 6 5 7 7 6 7 6 6 5 5 4 3 2 2 1 2 3 3 4 6 8 8 7 6 4 3 3 2 2 2 2 3 3 4 4 4 5 5 6 6 7
7 8 4 3 3 6 4 6 7 2 2 6 9 7 7 6 5 5 5 4 3 3 3 3 3 3 3 5 5 6 6 5 4 3 2 2 1 1 0 1 1 2 2 3 3 4 5 5 6
9 9 9 8 7 4 2 7 8 2 4 5 6 7 7 6 5 5 5 5 4 4 4 4 5 4 4 5 4 4 5 3 3 3 3 2 2 1 1 1 1 2 2 2 2 2 3 3 5
9 7 4 6 3 4 6 6 5 3 4 5 5 6 7 6 6 6 6 6 5 5 5 6 6 6 6 6 6 6 6 5 5 5 4 3 3 2 3 3 3 3 3 3 3 2 3 3 4
3 8 5 6 8 5 5 6 6 8 10 9 9 8 8 8 7 7 6 6 5 5 6 7 7 7 7 7 6 6 6 6 6 6 5 4 4 4 4 3 3 3 3 3 3 3 3 4 4
5 7 7 6 6 7 5 7 4 7 9 10 9 9 9 8 8 7 6 6 6 6 6 7 7 8 8 7 7 8 7 7 7 6 5 5 5 5 4 4 4 4 4 4 4 4 4 5 5
3 7 8 8 6 5 4 7 1 2 5 8 9 8 8 8 7 7 7 7 6 6 7 7 7 7 7 7 8 8 7 7 7 7 6 6 5 5 5 4 4 4 5 4 4 5 5 5 6
Wind_Direction
291 267 253 261 252 244 159 96 100 93 75 52 41 13 45 48 44 101 129 115 113 115 120 118 112 110 105 104 104 106 105 101 98 95 90 88 87 86 84 82 81 81 81 81 80 78 77 76 75
291 289 268 247 254 248 134 121 116 92 90 88 78 329 87 77 81 106 117 114 116 120 126 117 113 110 107 105 105 106 105 100 100 99 94 90 88 87 86 85 85 84 84 83 82 80 79 77 75
277 268 268 258 255 291 107 122 106 91 103 127 117 25 46 85 108 115 120 123 117 115 110 114 114 112 110 107 105 106 105 101 100 100 96 92 89 86 85 85 85 84 84 84 83 81 80 78 74
275 251 244 260 260 22 60 113 112 115 106 73 119 101 74 48 97 118 127 124 115 111 112 116 116 116 114 111 109 108 108 104 101 100 97 92 90 87 85 86 87 86 85 86 84 83 81 78 73
239 261 243 255 257 74 47 95 124 140 152 158 170 102 90 72 101 121 135 125 119 115 116 119 113 114 113 113 112 110 107 106 103 101 97 94 90 89 87 88 92 89 88 87 86 85 82 77 71
256 245 242 234 201 118 115 124 145 151 124 121 158 106 102 126 121 135 133 124 119 116 117 117 107 107 106 109 109 109 108 107 105 102 99 97 92 89 87 87 93 93 91 89 89 87 83 77 71
251 251 257 252 159 138 132 161 173 138 128 139 155 103 120 144 132 139 135 127 119 119 122 128 127 114 102 101 103 103 105 105 104 102 97 91 88 87 83 83 91 94 94 93 91 89 85 80 71
275 257 256 262 184 136 131 163 164 126 106 75 12 109 141 143 138 142 139 124 120 126 133 140 143 136 129 111 103 104 105 105 103 104 103 100 97 93 89 83 88 91 94 94 93 92 88 84 75
288 253 250 245 213 125 139 152 89 43 94 97 55 46 119 134 141 145 140 128 128 138 144 147 148 146 143 134 123 115 113 115 116 114 129 141 136 120 95 87 89 91 95 99 99 98 99 99 90
217 234 247 270 23 122 153 155 135 152 142 137 111 90 118 137 150 157 157 150 148 153 155 149 148 147 145 138 145 147 142 151 156 151 177 185 107 102 105 96 96 98 100 104 106 115 137 158 160
210 232 253 39 33 103 156 156 152 178 180 171 159 149 145 155 162 168 168 160 159 160 157 155 151 148 140 138 159 159 151 168 165 160 171 124 110 123 125 124 123 125 136 130 139 172 226 213 108
227 231 260 84 39 113 158 147 163 207 91 86 144 151 155 168 174 177 176 168 165 167 167 167 158 153 150 153 158 150 145 157 156 152 157 144 144 151 148 153 162 163 171 150 175 189 158 351 336
233 198 86 89 120 237 141 150 174 171 114 82 109 142 162 176 181 181 178 170 169 173 170 176 170 164 161 157 155 157 156 160 158 152 166 159 151 162 151 150 151 168 157 161 191 197 175 228 252
214 158 135 140 140 128 160 149 165 195 135 127 139 159 172 180 181 182 181 175 175 175 170 172 177 174 166 160 160 163 160 160 157 157 172 178 170 167 157 161 165 180 171 172 177 197 190 229 240
194 147 148 163 160 164 166 168 217 166 143 159 173 181 182 183 182 186 185 179 175 175 170 171 178 178 173 172 174 171 164 157 163 165 175 178 184 174 165 171 172 187 177 158 166 240 243 258 252
192 175 174 174 161 145 179 217 200 151 160 187 192 188 181 186 184 186 183 178 174 172 175 172 172 179 180 178 179 180 179 167 171 169 175 178 188 184 171 178 180 179 164 168 195 217 228 248 251
196 198 184 153 183 156 199 226 136 141 172 207 207 191 177 184 191 186 181 176 176 174 174 172 171 180 183 181 181 182 185 178 173 171 175 181 185 190 184 188 189 176 170 187 204 216 215 242 250
188 191 190 171 184 167 204 225 166 178 188 217 219 201 185 187 194 187 178 176 176 175 172 172 174 181 181 179 180 184 189 188 185 186 189 187 187 191 194 195 198 180 175 196 207 222 225 240 260
191 199 201 166 145 172 207 234 221 184 186 215 227 209 193 197 190 178 172 171 170 175 175 173 175 180 181 181 184 187 191 190 194 197 198 200 195 191 196 197 199 188 194 207 207 209 229 242 227
226 205 198 105 115 181 222 241 240 216 199 201 210 210 200 191 178 165 164 165 175 181 185 182 178 180 183 187 187 187 184 191 195 194 201 204 202 197 196 204 203 199 205 215 212 201 206 229 187
232 215 191 135 111 290 293 268 233 225 211 204 208 211 199 182 174 168 171 175 177 188 192 193 187 181 181 178 174 170 180 184 190 196 200 205 206 205 198 203 206 207 205 217 217 207 208 230 220
216 212 132 126 137 190 187 255 241 201 195 201 206 210 208 184 166 156 163 174 178 191 190 195 192 183 176 172 176 175 183 194 197 192 196 198 203 206 201 201 208 214 211 219 223 214 211 216 233
152 102 105 137 163 148 194 231 273 154 179 207 204 197 188 162 146 135 127 132 129 148 176 192 189 185 175 171 175 183 193 199 191 186 190 196 197 200 198 197 205 216 219 224 228 222 217 216 229
122 89 79 87 120 227 202 197 258 204 196 190 170 154 141 124 115 113 105 102 106 115 140 166 174 178 166 163 166 179 188 187 187 190 184 186 177 177 186 196 212 222 227 231 233 231 229 229 234
157 133 119 156 199 235 184 194 239 214 121 145 148 141 132 133 140 140 140 140 134 141 151 153 150 150 141 142 150 162 170 171 176 174 166 153 137 114 150 190 229 242 246 250 250 245 244 239 241
196 169 154 171 194 211 312 224 245 171 92 83 114 128 134 141 131 126 124 117 110 110 120 126 128 124 118 118 120 123 133 134 133 131 123 115 103 83 45 26 355 340 334 318 296 276 272 266 260
173 210 159 130 123 164 224 246 254 186 174 172 165 158 162 149 133 124 113 107 106 99 96 105 111 106 102 102 99 95 97 98 96 86 80 76 70 57 41 34 20 6 358 345 330 308 302 296 286
195 152 125 139 153 206 228 214 221 207 210 191 181 175 158 141 134 126 113 104 96 90 87 86 92 96 92 88 87 88 85 85 84 80 73 69 62 56 49 32 21 14 8 1 350 331 326 320 309
162 158 171 160 175 170 209 245 215 195 186 178 176 162 150 146 141 129 118 109 101 91 88 87 87 89 89 89 87 85 80 79 79 76 69 64 58 53 47 35 29 23 13 5 356 340 335 327 317
220 181 174 168 201 183 178 255 316 48 126 147 149 143 139 136 130 126 124 119 110 99 92 89 87 87 89 90 87 84 80 77 74 68 59 55 53 48 43 35 31 22 12 5 356 345 343 334 324